RH
27 27 29 33 36 38 36 31 28 27 26 23 20 18 16 15 14 13 12 10 9 8 7 7 6 6 5 5 4 4 4 4 4 4 3 4 3 4 4 2 4 4 3 6 7 21 47 63 57 37 27 36 39 36 46 62 69 82 88 63 34 22 20
39 42 43 42 41 40 34 30 29 27 25 22 20 19 18 18 17 17 17 15 14 13 11 9 8 7 6 5 5 4 5 4 4 4 3 4 3 3 4 3 3 3 4 4 3 10 29 53 66 49 28 34 46 41 47 68 71 70 83 80 51 24 18
59 60 55 47 43 39 32 31 29 26 23 21 21 22 22 22 22 22 21 21 20 18 16 14 11 9 7 6 6 5 5 4 4 4 4 4 4 3 3 4 3 3 4 4 4 5 8 32 66 65 37 33 51 55 54 65 68 67 76 83 75 47 26
69 66 56 47 41 36 32 30 28 25 23 22 22 23 23 24 24 24 24 23 23 21 20 18 16 14 11 8 7 6 5 5 4 4 4 4 4 4 3 4 4 4 4 3 5 6 2 21 63 78 56 41 50 59 63 71 74 76 76 74 82 78 55
69 62 52 43 38 34 32 30 27 25 23 22 23 23 23 24 23 24 24 24 24 23 22 22 20 18 16 13 10 8 6 5 4 4 4 4 4 4 4 4 4 3 4 5 6 6 6 22 53 75 70 54 50 54 60 73 82 82 75 64 68 84 85
60 53 45 39 35 34 32 29 26 25 23 23 22 21 21 21 22 23 24 25 25 25 24 23 23 21 20 18 14 12 8 6 5 4 4 5 4 5 4 4 5 4 4 6 6 5 7 15 27 54 75 68 55 56 56 58 67 73 68 56 50 65 87
49 44 40 36 35 34 31 27 26 24 22 22 21 20 21 21 23 23 24 27 27 27 27 25 25 24 22 21 18 15 11 7 6 5 5 5 4 5 5 5 5 5 4 4 5 4 5 7 8 29 68 80 63 57 58 52 51 54 54 51 51 59 75
44 39 37 35 35 32 29 26 25 23 22 21 21 21 23 23 24 25 26 28 29 29 30 27 27 25 24 23 21 17 14 10 8 6 5 5 5 6 6 6 6 5 6 4 5 5 4 7 7 12 44 80 82 67 62 60 53 49 46 50 61 61 63
48 43 39 37 35 31 29 26 24 23 22 22 24 25 27 27 28 29 30 31 32 31 31 30 28 26 24 23 21 19 16 13 10 8 7 7 7 8 8 8 8 7 7 6 4 6 5 6 8 8 20 55 83 84 75 69 63 59 56 58 66 65 63
50 47 42 38 35 31 29 26 24 25 24 25 29 30 32 32 32 33 34 34 35 34 32 31 29 27 25 23 22 20 18 15 13 11 10 11 10 12 11 11 11 10 9 8 6 6 6 7 8 9 11 28 60 86 91 84 71 64 64 64 68 74 75
47 44 42 38 35 32 29 27 26 27 28 30 34 35 37 37 36 37 37 38 38 36 34 31 29 27 24 23 22 20 18 16 15 14 14 14 14 14 13 12 12 12 10 9 8 7 7 8 8 9 9 13 33 63 85 92 83 71 69 69 68 76 81
47 44 42 38 35 32 30 30 30 31 33 36 38 39 41 41 41 41 41 42 41 38 35 31 29 27 24 23 21 20 19 17 17 17 16 16 15 14 14 13 12 12 11 10 9 9 8 8 10 10 10 9 13 30 52 77 92 87 76 70 68 72 77
49 46 43 40 38 35 33 33 34 36 38 39 41 42 44 44 45 45 43 44 42 38 35 31 29 27 24 22 21 19 19 19 18 18 17 17 16 15 14 13 12 11 11 10 9 10 10 10 10 11 12 11 9 12 21 43 76 96 92 80 74 71 71
50 47 44 43 40 39 38 37 38 40 40 41 42 43 46 47 48 47 46 46 43 39 34 32 29 26 24 22 21 20 20 20 20 19 18 17 15 14 13 11 12 11 10 11 10 10 10 11 12 12 11 12 11 11 11 16 38 71 93 96 88 79 76
53 51 50 48 45 43 43 42 43 43 43 44 45 46 48 50 50 49 48 47 43 39 35 32 29 26 24 23 22 22 21 20 20 19 18 16 14 12 11 10 10 10 10 11 11 11 11 12 13 14 13 13 13 12 12 10 13 30 59 84 95 95 92
57 56 55 52 51 49 47 47 46 45 46 46 47 49 51 53 53 50 48 47 44 40 36 32 28 25 24 24 23 23 22 21 20 18 16 14 12 10 10 10 11 11 12 12 12 13 13 13 14 15 14 14 14 13 12 12 11 11 23 47 73 90 98
60 59 59 56 55 54 52 50 48 47 48 49 50 52 53 55 54 50 48 47 45 42 38 32 28 25 24 24 24 23 22 20 17 15 13 11 11 11 12 13 14 14 14 14 15 15 14 15 14 15 15 15 14 14 13 12 12 11 11 17 33 55 77
61 62 62 60 59 58 55 52 50 49 50 51 52 54 56 57 54 50 48 47 46 43 38 33 28 26 25 24 24 22 20 17 14 12 12 13 14 15 15 16 15 15 15 14 14 14 14 14 13 13 14 14 14 14 13 13 12 12 11 10 12 20 36
63 65 65 64 62 59 56 52 51 51 53 53 54 55 58 59 54 50 49 48 46 42 37 32 28 26 25 24 22 20 16 14 13 14 15 16 16 15 14 14 12 11 11 10 10 10 9 9 9 10 10 10 11 11 11 12 12 11 11 11 11 10 12
61 63 62 62 61 59 57 55 53 55 57 57 56 58 61 61 54 50 49 47 44 39 34 30 27 26 25 22 19 16 15 15 16 16 16 14 13 12 10 9 9 8 7 6 6 6 6 5 5 5 6 5 6 6 7 8 8 9 10 9 10 10 10
58 59 59 60 61 61 60 58 57 58 59 59 59 61 64 61 54 51 49 45 40 35 31 28 26 24 22 19 17 16 17 18 16 15 13 11 10 9 8 7 6 5 5 4 4 4 4 4 3 3 4 4 3 4 4 4 4 5 6 7 8 8 8
58 56 56 58 63 66 66 64 62 61 61 60 61 64 66 61 55 52 48 43 37 32 29 26 24 22 20 19 19 19 18 17 14 13 11 10 9 7 6 6 4 4 4 3 4 3 3 3 3 3 3 3 3 3 3 3 3 3 3 4 5 6 6
67 62 58 59 64 69 69 68 67 64 63 63 63 67 68 61 55 52 46 40 34 30 28 25 23 22 21 21 20 19 18 15 13 12 10 9 8 6 5 4 4 4 3 3 3 3 3 2 2 2 2 2 2 2 2 2 2 2 3 3 3 3 4
67 63 59 59 66 73 73 71 70 67 65 65 65 70 69 61 56 52 44 37 33 29 27 25 24 24 24 23 21 18 17 14 12 11 9 7 6 4 4 4 3 3 3 3 3 2 2 2 2 2 2 2 2 2 2 2 2 2 2 2 2 2 3
55 61 66 68 71 76 77 75 72 69 68 67 69 73 69 61 56 51 43 36 31 29 28 27 27 27 25 23 20 17 15 13 10 8 6 5 4 4 3 3 3 3 2 2 2 2 2 2 2 2 2 2 2 2 2 2 2 2 2 2 2 2 2
49 62 76 82 82 80 80 78 74 72 71 71 73 75 69 61 56 50 42 36 31 29 29 29 29 29 26 22 19 16 13 10 7 6 5 4 3 3 3 3 2 2 2 2 2 2 2 2 2 2 2 2 2 2 2 2 2 2 2 2 2 1 2
59 75 87 93 93 87 84 81 78 77 77 77 78 77 69 60 56 49 41 35 32 31 31 32 32 29 25 21 17 13 10 7 6 5 4 4 3 3 2 2 2 2 2 2 2 2 2 2 2 2 2 2 3 2 2 2 2 3 2 2 2 2 2
65 84 95 99 98 93 89 86 84 84 85 85 83 77 68 61 55 49 41 35 33 34 35 35 34 29 23 18 14 10 7 6 5 4 3 3 3 3 3 2 2 3 2 2 2 3 2 2 2 3 3 3 3 3 3 3 3 3 3 3 2 3 2
54 70 86 97 99 96 94 93 93 93 92 90 85 77 68 61 55 47 40 36 35 37 39 38 34 27 20 15 11 8 6 5 4 3 3 3 3 3 3 3 3 3 3 3 3 3 3 3 3 3 3 3 3 3 3 4 4 3 3 4 3 3 3
51 65 85 97 99 97 97 98 101 99 94 90 86 78 69 62 54 46 39 37 38 41 42 40 31 23 17 12 8 6 5 5 4 3 3 3 3 3 3 3 3 3 3 3 3 3 3 3 3 3 3 4 4 4 4 4 4 4 4 4 4 4 4
52 68 89 99 100 98 98 101 103 99 93 90 87 79 70 61 52 45 41 41 43 46 45 37 27 18 13 9 7 6 5 4 3 3 3 3 3 4 3 4 3 3 3 3 3 4 4 4 4 4 4 4 4 4 4 4 4 5 5 4 4 4 4
57 73 92 101 101 99 100 102 102 96 93 93 87 78 69 59 50 47 46 48 50 50 44 31 21 15 10 7 6 5 4 3 3 3 3 3 4 4 4 4 4 3 4 4 4 4 4 5 5 4 4 4 4 4 4 4 5 5 5 5 5 5 4
60 77 96 101 99 100 101 102 100 96 96 94 86 76 66 56 50 50 52 55 55 49 37 24 16 11 8 6 6 4 3 3 3 3 4 4 4 4 4 4 4 4 4 4 5 5 5 5 5 5 4 4 4 4 4 5 5 5 5 5 5 5 5
56 75 96 101 99 100 102 101 99 99 99 93 83 73 63 54 51 54 58 60 54 42 28 18 12 9 7 6 5 4 3 3 3 4 4 4 4 4 5 4 4 4 5 5 5 6 6 5 5 4 4 4 4 4 4 5 5 5 5 6 5 5 5
53 69 89 98 100 101 101 101 101 101 99 90 79 69 59 52 53 58 62 59 46 31 21 15 10 7 6 5 4 3 3 3 4 4 4 4 4 4 5 5 5 5 5 5 6 6 6 6 5 5 5 5 4 5 5 5 6 6 6 6 6 6 6
56 73 90 98 101 102 101 100 102 101 95 84 73 64 56 55 60 64 61 49 33 22 16 12 8 6 5 4 4 3 4 3 4 4 4 4 4 4 5 5 5 6 6 6 7 7 6 6 5 5 5 5 5 5 6 6 7 7 7 7 7 7 7
76 87 98 101 101 101 100 101 101 96 86 75 67 61 60 64 66 62 51 36 23 17 14 9 7 6 5 4 3 3 4 4 4 4 4 4 4 4 5 5 5 6 7 7 7 7 7 6 6 5 5 5 5 6 6 7 8 8 8 8 7 7 7
Wind_Speed
14 14 13 12 12 12 12 12 13 14 14 15 14 14 14 14 15 16 17 18 18 19 19 20 21 22 23 24 25 26 27 28 28 28 29 29 30 32 33 35 37 38 39 38 38 39 36 32 31 32 32 31 29 27 26 24 26 26 24 24 26 27 27
14 13 12 12 12 12 12 12 13 14 14 14 14 13 13 13 14 15 16 17 18 19 19 20 22 23 24 25 26 27 28 28 29 29 30 30 31 32 33 35 36 37 38 38 38 38 38 35 32 31 31 31 29 27 25 24 24 25 24 23 24 26 27
13 13 12 12 12 12 13 13 13 14 14 14 13 13 13 14 15 16 17 18 18 19 20 21 22 23 24 25 26 27 28 29 30 30 31 31 32 32 33 34 35 36 37 37 37 37 37 37 34 31 30 29 28 26 24 24 24 24 22 21 21 24 25
13 12 12 12 12 12 13 13 14 14 14 14 14 14 15 15 16 17 18 19 19 20 21 22 23 24 25 26 27 28 29 29 30 31 31 32 32 33 33 34 35 36 36 36 36 36 37 37 34 31 29 28 26 24 22 21 22 21 20 19 19 20 22
13 12 12 12 12 13 14 14 15 15 15 15 15 16 16 17 18 19 19 20 20 21 22 23 24 25 26 26 27 28 29 30 30 31 31 32 32 33 34 34 34 35 35 35 34 35 35 35 34 32 31 28 25 23 21 19 19 19 19 20 20 20 21
12 12 12 12 13 15 15 15 16 16 16 17 17 18 18 19 19 20 20 21 21 22 23 24 25 26 27 27 28 28 29 30 30 30 31 31 32 33 33 34 34 34 35 34 33 33 33 33 33 33 32 29 25 22 20 18 18 18 19 21 22 21 20
12 12 12 13 15 16 16 16 17 17 17 18 19 19 20 20 21 21 21 21 22 23 24 24 25 26 27 28 28 29 29 29 30 30 30 31 32 32 33 33 33 33 34 33 32 32 32 32 32 31 30 28 26 23 20 18 17 19 19 20 21 22 21
13 12 13 15 16 16 16 16 16 17 18 18 19 20 20 21 21 22 22 22 23 24 25 25 26 27 27 28 29 29 29 29 29 30 30 31 32 32 32 32 32 32 32 32 31 30 30 31 31 31 30 27 25 23 22 19 18 19 20 20 21 23 23
14 14 16 17 17 17 16 16 16 17 18 18 19 20 20 21 22 22 23 23 24 25 26 26 27 27 27 28 28 29 29 29 29 29 30 30 31 31 31 31 31 31 31 31 31 30 29 30 30 30 30 28 24 22 22 22 21 20 20 21 22 23 24
16 16 17 17 17 17 16 16 17 17 17 18 19 20 21 22 23 24 25 25 26 26 27 27 27 27 27 28 28 28 29 29 29 29 29 29 30 30 30 30 30 31 31 31 31 29 28 28 29 29 28 27 25 23 21 22 23 22 22 22 23 23 25
17 17 18 17 17 17 16 17 17 17 18 18 20 21 22 23 24 25 26 27 27 27 27 27 27 27 27 27 28 28 28 28 29 29 29 29 29 29 30 30 30 30 30 31 31 30 28 27 28 27 27 26 25 25 23 22 22 23 24 23 23 24 25
18 18 18 17 17 17 16 16 17 17 18 19 21 22 23 24 25 26 27 27 28 28 27 27 26 26 27 27 28 28 28 28 28 28 28 29 29 30 30 30 31 30 30 30 31 30 28 27 27 27 27 26 25 25 25 24 22 22 23 24 24 24 25
19 18 18 17 17 17 17 16 17 18 19 20 22 23 24 25 26 27 27 28 28 27 27 27 27 27 27 27 27 27 27 27 27 28 29 29 30 30 30 31 31 30 30 30 30 30 29 28 27 27 27 26 25 25 25 25 23 21 21 23 25 25 25
19 18 18 17 18 17 17 17 18 19 20 21 23 24 25 26 26 27 28 28 28 27 27 27 27 27 27 27 27 27 27 27 28 29 30 30 31 31 31 31 30 30 29 29 29 30 30 29 27 27 27 26 26 25 25 25 24 23 21 20 22 25 26
19 18 18 18 18 18 18 19 19 20 21 22 24 25 25 26 27 28 28 28 27 27 27 27 27 26 26 27 27 27 28 29 30 30 31 31 31 31 31 30 29 29 29 29 28 29 29 30 29 28 27 27 27 26 26 25 25 24 23 22 21 22 24
18 18 18 18 19 19 19 20 21 22 23 24 25 25 26 27 28 28 28 28 27 27 27 27 27 27 27 27 28 29 30 31 31 31 31 30 30 29 29 29 28 28 28 28 28 28 29 30 30 29 28 27 27 27 27 26 25 25 25 24 23 22 22
18 18 19 19 20 20 21 22 23 24 24 25 26 27 27 28 28 28 28 27 27 27 27 27 27 27 27 28 29 30 31 32 32 31 29 28 27 27 27 28 28 28 28 28 28 29 29 30 30 31 30 29 28 28 28 28 27 26 25 25 25 24 24
19 20 20 20 21 21 22 23 24 25 26 27 27 27 28 29 29 28 27 27 28 28 28 27 27 27 28 29 30 31 32 32 30 28 27 26 26 27 27 28 29 30 30 30 30 31 31 31 31 32 32 32 31 30 29 29 29 28 27 27 26 26 26
20 20 21 21 21 22 23 25 26 27 27 28 28 28 28 29 29 28 27 28 28 28 28 27 27 27 28 29 30 31 31 29 27 26 25 26 27 28 29 30 31 32 32 32 32 32 32 32 33 33 34 34 34 33 32 31 31 30 30 29 28 28 27
20 21 22 22 23 24 25 27 28 28 28 29 28 28 29 29 29 28 28 28 28 27 27 27 27 28 28 29 30 29 28 26 25 26 26 27 28 29 29 30 31 31 32 32 33 33 33 33 33 33 33 34 35 35 34 33 32 32 32 32 31 30 29
21 22 23 24 25 26 27 28 29 29 29 30 29 29 30 30 28 28 28 28 27 27 26 27 27 28 28 28 27 26 26 26 26 27 28 28 29 30 30 30 31 31 32 32 32 33 33 33 33 33 33 34 34 35 35 35 34 33 33 33 33 33 32
23 24 24 25 26 28 29 30 30 30 30 31 30 30 30 30 28 28 27 27 26 26 26 26 27 27 27 26 26 26 27 28 28 29 30 30 31 31 31 31 31 32 32 32 33 33 34 34 34 34 34 34 34 35 36 36 36 36 34 34 33 34 34
26 26 26 26 27 29 30 31 31 31 31 31 31 31 30 29 28 27 27 26 26 26 26 26 26 26 26 26 27 27 28 29 30 31 31 32 32 32 33 33 33 33 33 33 34 34 35 35 35 34 34 34 34 34 35 36 37 37 37 36 35 35 35
28 29 29 29 29 30 31 32 32 33 33 33 32 31 31 29 28 27 27 26 26 26 26 26 25 26 26 27 28 29 30 30 31 32 32 33 33 34 34 34 34 34 34 34 34 34 35 35 36 36 36 35 34 34 34 34 34 36 37 37 37 37 36
30 31 31 31 31 31 32 33 33 33 34 34 33 32 30 29 28 27 27 27 26 26 25 25 26 26 27 28 29 30 31 31 32 32 33 33 34 34 34 34 34 34 34 34 34 34 34 34 35 35 35 35 35 34 34 33 33 33 34 35 36 36 36
30 32 32 32 32 32 33 33 34 34 35 35 34 31 30 29 28 27 27 27 26 25 25 25 26 27 28 29 30 30 31 31 32 32 33 33 34 34 34 33 33 33 34 34 34 34 34 34 34 34 34 34 33 33 33 33 33 32 33 33 33 34 34
30 31 32 32 32 33 34 34 35 35 35 35 33 31 30 29 28 28 28 27 26 25 25 26 27 28 29 30 30 30 31 31 32 33 33 33 33 33 33 33 33 34 34 34 34 34 34 34 34 33 33 33 33 32 31 31 31 31 31 31 31 32 32
28 28 29 30 32 33 34 35 35 35 35 34 32 30 29 29 28 28 28 27 26 25 25 26 28 29 29 30 30 30 31 31 32 33 33 33 33 33 33 33 33 34 34 34 34 33 33 33 32 31 31 30 31 31 31 31 30 30 30 29 29 29 30
27 27 27 29 32 34 35 36 35 35 34 32 31 30 29 29 28 29 28 27 26 26 26 27 28 29 29 29 30 30 31 32 32 33 32 32 32 33 33 33 33 33 33 33 33 32 32 32 31 30 30 29 29 29 30 30 30 30 30 29 29 29 29
27 27 28 30 32 34 36 37 35 34 32 30 29 29 29 29 29 29 28 26 26 26 27 28 28 29 29 29 29 30 31 32 32 32 32 32 32 32 32 32 32 32 32 31 31 31 31 31 30 30 30 30 29 29 29 29 29 29 29 29 29 29 29
27 26 28 31 33 36 38 37 34 32 30 28 29 30 29 29 29 28 27 26 26 26 27 28 28 28 28 28 29 30 31 31 31 31 31 31 31 31 31 31 30 30 30 30 30 30 30 30 30 29 29 29 29 29 29 29 29 29 29 29 29 29 29
26 26 28 31 34 38 39 35 31 30 28 27 28 30 30 29 29 27 26 26 26 26 27 27 27 27 27 28 29 30 30 30 30 30 30 30 30 30 29 29 29 29 29 29 28 28 28 28 28 28 28 28 28 28 28 28 28 28 28 28 28 28 28
26 27 29 32 37 40 37 32 30 29 27 27 29 30 30 29 28 26 26 26 26 26 27 27 27 26 26 27 28 29 29 29 29 29 29 29 29 29 29 29 28 28 28 28 28 28 28 27 27 27 27 28 28 28 28 27 27 27 27 27 27 28 28
28 28 30 34 39 39 35 31 29 27 26 27 29 29 29 28 27 26 26 26 25 26 26 26 26 25 26 27 28 28 28 28 28 29 29 29 29 29 28 28 28 28 28 27 27 27 27 27 27 27 27 27 27 27 27 26 26 26 26 26 27 28 29
30 30 33 36 38 36 33 30 28 26 26 28 29 29 29 27 26 26 26 25 25 25 25 25 24 25 26 27 28 28 28 28 28 28 29 29 29 29 28 28 28 27 27 27 27 27 27 27 27 27 27 27 26 26 26 25 25 25 25 26 27 28 29
31 32 35 37 36 34 32 29 27 25 27 28 28 28 27 26 26 26 25 24 24 24 24 24 24 25 26 27 27 27 27 27 27 28 28 28 28 28 28 28 27 27 27 27 27 27 27 27 26 26 26 26 26 25 25 24 24 24 25 26 26 27 28
31 32 34 35 34 32 30 27 25 25 26 27 27 27 26 25 25 24 23 23 23 23 23 23 23 25 26 27 27 26 26 27 27 27 27 27 27 27 27 27 26 26 26 26 27 27 27 27 26 26 26 26 26 25 24 24 24 24 24 25 26 27 28
Wind_Direction
239 244 248 254 259 266 274 280 289 294 300 303 306 311 318 322 322 320 317 314 313 313 313 314 314 313 313 312 312 312 313 314 314 313 313 316 319 321 323 324 324 326 328 330 332 330 327 326 322 318 317 314 309 299 288 282 275 266 257 255 259 259 259
242 249 254 259 265 272 279 285 291 297 300 301 304 311 317 321 320 318 317 316 316 317 317 317 316 315 313 313 312 312 313 314 313 313 314 316 318 319 321 323 323 325 326 327 330 330 328 327 323 319 318 316 313 304 290 280 279 274 260 252 256 259 259
248 255 258 262 269 276 281 287 292 296 297 298 303 309 314 316 315 315 315 316 318 319 319 318 318 317 315 314 313 313 314 314 313 313 313 315 316 317 319 320 321 322 324 326 327 328 329 328 323 320 319 317 316 309 294 280 278 276 264 257 258 257 258
253 256 257 263 271 276 282 288 290 290 292 296 301 305 308 309 310 312 314 316 318 318 319 319 319 319 318 317 316 315 314 313 312 312 313 314 315 316 317 318 319 320 321 324 326 326 328 329 325 321 320 320 319 313 301 286 278 272 261 256 260 260 259
251 253 257 264 272 278 283 286 286 287 289 293 296 299 301 303 306 309 311 314 316 317 318 318 319 319 319 318 317 316 315 313 312 312 312 313 314 314 315 316 318 319 319 322 324 325 327 330 330 326 322 319 319 315 308 296 283 274 262 253 257 264 265
248 252 259 267 274 279 283 284 285 287 289 290 292 295 298 302 305 308 310 313 314 316 317 317 318 318 318 318 317 316 314 313 312 311 312 312 313 313 314 316 316 317 318 320 321 323 326 329 331 330 325 318 315 314 310 301 289 279 269 260 259 265 268
250 257 264 269 274 278 281 283 285 288 290 292 293 297 301 304 307 308 310 312 313 315 315 316 316 316 316 316 315 315 313 312 311 310 311 311 312 313 313 315 315 316 317 318 320 321 324 327 329 332 329 320 312 310 308 301 290 280 272 267 265 263 265
256 261 266 270 274 277 280 283 287 289 291 294 298 302 306 308 309 309 310 312 313 314 313 313 314 314 314 313 313 313 311 311 310 309 310 310 311 312 313 314 314 314 315 316 318 320 322 324 327 331 331 324 313 307 306 300 289 279 272 268 267 263 261
260 263 267 271 275 277 280 284 288 290 293 298 302 306 309 310 310 310 311 312 313 313 312 312 311 311 312 311 311 311 310 309 308 308 309 309 310 311 312 313 314 314 314 315 317 318 320 322 324 327 330 329 320 308 303 299 290 282 276 272 270 267 263
260 263 267 271 275 278 283 286 288 292 297 302 306 309 311 311 311 311 311 311 311 311 310 310 309 309 309 309 309 308 308 307 307 307 308 308 309 310 311 312 313 313 313 314 315 316 318 319 321 324 326 329 325 313 304 298 291 286 281 276 273 272 269
261 264 267 271 276 280 284 288 291 297 302 306 309 311 312 312 312 311 310 310 309 309 308 307 307 307 307 307 307 306 306 305 305 306 306 307 308 309 310 311 311 312 312 312 313 314 316 317 318 320 321 323 323 319 314 306 295 288 284 279 273 271 272
263 266 270 275 279 282 287 291 296 301 306 309 312 313 313 313 312 310 309 308 308 307 306 305 304 305 305 306 305 305 304 304 304 305 305 306 307 308 309 310 310 310 310 311 311 312 314 315 315 316 317 319 320 321 320 316 304 290 283 281 275 271 270
265 269 274 278 281 285 289 294 299 304 307 311 312 313 314 313 312 311 309 308 307 306 304 304 304 305 305 305 304 303 302 302 303 303 304 305 306 307 308 308 309 309 309 309 310 311 312 313 313 313 314 315 317 318 319 318 314 302 290 282 278 275 272
267 272 276 279 283 288 292 297 301 304 307 310 312 313 313 313 313 312 310 309 307 305 304 304 305 305 305 304 303 302 301 302 302 303 304 305 306 307 308 309 309 309 310 309 309 309 310 312 312 311 311 312 313 313 314 315 315 311 304 293 282 276 275
269 274 278 283 287 292 295 298 301 303 305 308 310 312 313 314 313 312 311 309 306 306 305 305 305 304 304 303 302 301 301 302 302 303 304 305 306 308 309 311 311 311 311 311 310 309 309 310 311 311 310 309 310 310 310 310 311 311 309 305 297 283 278
271 276 281 285 289 292 296 298 300 302 304 306 309 312 314 315 314 312 310 309 307 307 306 306 304 303 303 302 302 302 302 302 302 303 305 306 308 310 311 313 313 313 313 312 312 311 309 309 309 309 309 308 307 308 307 307 307 308 308 307 305 298 290
274 278 282 286 289 293 296 297 299 301 303 306 309 311 314 314 313 312 311 310 308 307 306 305 304 303 303 303 303 303 303 302 303 304 307 309 310 312 313 314 314 313 313 312 312 311 310 309 308 307 307 307 306 305 305 305 304 303 304 304 304 302 297
277 280 283 287 290 292 294 295 297 299 302 304 307 310 313 314 313 313 312 311 309 307 305 304 304 304 304 304 303 303 302 303 304 306 309 311 312 313 313 313 313 312 311 310 310 309 308 307 306 305 305 305 304 303 302 301 301 301 301 301 301 301 299
279 281 284 286 288 290 291 293 295 297 299 302 305 309 312 314 313 312 311 310 308 306 304 304 304 304 304 304 303 303 303 304 306 308 310 312 312 313 312 312 311 310 310 309 309 308 307 306 305 304 303 303 302 301 300 298 298 298 297 297 296 296 296
281 283 285 287 287 288 288 290 292 294 297 300 304 309 312 313 312 311 310 309 307 306 305 304 305 305 305 305 304 304 304 305 307 309 311 312 312 312 311 310 310 309 309 310 309 309 308 307 306 305 304 303 302 301 300 298 296 294 293 292 292 291 291
280 282 284 286 286 286 286 287 290 293 296 299 304 309 311 312 311 309 309 308 307 306 306 306 306 306 306 306 305 305 306 308 310 311 312 312 312 311 311 310 310 309 309 309 309 309 308 307 307 305 304 303 302 301 300 300 298 295 293 291 289 288 287
279 281 283 284 284 284 284 286 289 292 295 299 303 307 310 310 309 309 309 308 307 307 308 308 308 308 307 307 307 308 310 312 313 314 314 313 312 311 311 310 310 310 310 310 309 309 309 308 307 307 305 304 302 301 300 300 299 297 295 292 290 287 286
278 280 282 283 283 282 283 285 287 290 293 297 301 306 308 308 308 308 308 308 308 308 309 309 309 308 309 309 310 312 313 314 314 314 314 313 312 312 311 311 311 311 312 312 312 311 311 310 310 309 309 307 305 303 302 300 299 298 296 294 292 289 287
278 279 280 281 281 280 281 283 285 288 291 294 298 304 306 306 307 308 308 309 309 309 308 308 308 309 310 311 312 313 314 314 314 314 313 313 313 313 313 313 313 314 314 314 314 314 314 313 313 312 312 311 310 308 306 304 301 299 298 297 295 292 289
277 278 278 278 277 277 278 280 282 285 287 291 297 302 304 304 305 306 308 308 308 308 308 308 309 310 311 312 313 314 314 315 314 314 314 314 314 314 314 315 315 315 315 315 315 315 315 314 314 314 314 313 313 313 312 310 307 304 302 300 298 295 292
277 277 276 274 273 274 275 276 278 281 284 288 295 300 302 301 303 305 307 307 307 307 307 308 310 311 312 313 314 315 315 315 315 315 315 315 315 315 315 316 317 317 317 317 316 316 316 316 316 316 316 315 315 315 315 314 313 311 308 305 303 301 298
277 275 273 271 269 269 270 271 274 277 280 286 293 297 299 299 301 304 305 305 305 305 306 308 309 311 313 314 315 316 315 315 316 316 316 316 316 316 317 318 319 319 318 318 317 317 317 317 317 317 317 317 316 316 316 315 314 313 312 310 307 305 302
275 272 271 269 267 266 266 267 269 272 276 284 291 295 296 298 300 302 303 303 303 303 305 307 310 312 314 315 315 316 316 317 317 317 317 317 318 319 319 320 319 319 318 317 317 317 317 317 317 317 316 316 317 317 316 316 315 314 313 311 309 307 305
274 272 270 268 265 263 262 262 264 268 274 284 290 293 295 297 298 299 301 301 300 302 304 308 311 313 314 315 316 316 317 318 318 318 318 319 320 321 320 320 319 318 317 317 317 317 317 317 317 316 317 317 317 317 317 316 316 315 314 313 313 312 310
274 272 269 267 263 260 259 259 261 266 275 284 288 291 294 296 296 297 298 299 299 300 304 308 312 314 315 316 316 317 318 319 319 319 320 321 321 321 320 319 319 318 318 318 318 318 318 318 318 318 319 319 319 319 318 317 317 316 316 316 315 314 313
273 271 268 264 260 257 256 256 260 268 277 284 287 290 293 293 294 295 297 297 298 301 305 310 312 313 314 315 316 318 319 319 319 320 320 321 321 320 320 320 320 320 320 320 320 320 320 320 320 320 321 321 322 322 322 321 320 319 318 317 316 315 314
273 271 267 262 258 256 254 255 262 272 278 283 286 289 291 291 292 294 296 298 299 303 307 310 312 313 313 315 317 319 319 319 320 320 319 320 320 321 321 321 321 321 321 322 322 322 322 322 321 322 323 323 323 324 323 322 320 319 318 317 317 316 316
272 271 266 260 257 256 254 257 266 274 279 283 286 288 290 290 290 292 296 299 301 304 308 310 310 311 313 316 318 319 319 319 319 319 319 319 320 321 322 322 322 322 323 324 325 324 324 324 324 325 326 325 325 324 323 321 320 319 319 319 319 320 321
272 270 265 261 259 256 254 259 268 274 279 283 285 287 288 289 289 291 296 299 302 305 307 308 309 310 314 317 318 318 319 319 319 319 319 319 320 321 321 322 322 323 324 325 325 325 326 327 327 328 328 327 326 325 323 322 322 322 323 324 325 326 327
271 268 265 264 260 255 255 262 270 275 279 282 284 286 287 288 289 292 295 299 301 304 305 306 307 311 314 316 317 317 318 318 319 319 319 319 320 320 320 321 322 324 324 325 325 326 327 328 329 329 328 328 327 326 325 325 326 327 329 330 330 330 330
270 268 266 262 258 255 258 264 269 273 278 280 282 285 287 288 290 292 295 298 301 302 303 304 307 311 314 315 316 317 318 318 319 319 319 319 320 320 321 321 322 323 323 324 325 327 329 329 329 329 329 329 329 329 329 330 330 332 332 332 332 332 331
268 267 264 259 255 256 260 264 268 273 276 279 282 286 288 289 290 292 295 298 300 300 301 304 308 311 313 314 315 316 318 319 319 318 318 319 320 321 321 321 321 322 323 324 327 328 329 329 329 330 331 332 332 332 333 333 333 334 334 334 334 333 333